Location: Peterborough
(44.3091°N, 78.3197°W)
Time: 16:46:53
(UTC-04:00)

Transit 4A - Pass Details

Date: 25 March 2023
Orbit: 864 x 980 km, 66.8° (Epoch: 04 June)

Event Time Altitude Azimuth Distance (km) Brightness Sun altitude
Rises 16:01:25 0° 329° (NNW) 3,559 10.9 34.6°
Reaches altitude 10° 16:03:55 10° 331° (NNW) 2,630 10.3 34.2°
Maximum altitude 16:10:03 73° 56° (NE) 986 8.4 33.3°
Drops below altitude 10° 16:16:21 10° 142° (SE) 2,691 10.4 32.4°
Sets 16:18:56 0° 144° (SE) 3,646 11.0 32.0°
